STARLINK-1650

Last updated on Fri Nov 06 2020 00:02:03 GMT+0000 (Coordinated Universal Time)

1 46573U 20070AT 20310.83334491 -.00016892 00000-0 -17887-3 0 9997 2 46573 53.0019 292.9840 0000928 72.8247 6.8150 15.62775688 5581
UTC large
Height (km)
Speed (km/s)
/
Latitude / Longitude
Inclination (degrees)
Orbital Period (minutes)
Azimuth
Elevation
Range (km)
Doppler Factor

Next 0 passes for location: London (51.5072 / 0.1276)

Sorry there are no passes over London.